******** Week 363 almanac for PRN-1 ******** ID: 1 Health: 0 Eccentricity: 0.00163936615 Time of Applicability(s): 147456 Orbital Inclination(rad): 0.9580033594 Rate of Right Ascen(r/s): -8.183198006e-09 SQRT(A) (m 1/2): 5153.570312 Right Ascen at Week(rad): 2.761530938 Argument of Perigee(rad): 0.1178970596 Mean Anom(rad): 1.374016852 Af0(s): 0.0002464515015 Af1(s/s): -7.275958e-12 week: 363 ******** Week 363 almanac for PRN-2 ******** ID: 2 Health: 0 Eccentricity: 0.01686143875 Time of Applicability(s): 147456 Orbital Inclination(rad): 0.963150584 Rate of Right Ascen(r/s): -8.114623721e-09 SQRT(A) (m 1/2): 5153.53418 Right Ascen at Week(rad): 2.599123344 Argument of Perigee(rad): -0.8000840823 Mean Anom(rad): 2.862383434 Af0(s): 5.04961792e-05 Af1(s/s): 7.275958e-12 week: 363 ******** Week 363 almanac for PRN-3 ******** ID: 3 Health: 0 Eccentricity: 0.006578922272 Time of Applicability(s): 147456 Orbital Inclination(rad): 0.993734326 Rate of Right Ascen(r/s): -7.531742299e-09 SQRT(A) (m 1/2): 5153.579102 Right Ascen at Week(rad): -2.53429805 Argument of Perigee(rad): 1.202607982 Mean Anom(rad): -0.7260732544 Af0(s): 0.0004182892456 Af1(s/s): -1.455192e-11 week: 363 ******** Week 363 almanac for PRN-4 ******** ID: 4 Health: 0 Eccentricity: 0.003714561462 Time of Applicability(s): 147456 Orbital Inclination(rad): 0.970502906 Rate of Right Ascen(r/s): -7.726036106e-09 SQRT(A) (m 1/2): 5153.671875 Right Ascen at Week(rad): -1.464071936 Argument of Perigee(rad): -2.87356509 Mean Anom(rad): 2.237167918 Af0(s): 3.994473877e-05 Af1(s/s): 0 week: 363 ******** Week 363 almanac for PRN-5 ******** ID: 5 Health: 0 Eccentricity: 0.005435466766 Time of Applicability(s): 147456 Orbital Inclination(rad): 0.9802760414 Rate of Right Ascen(r/s): -7.680319916e-09 SQRT(A) (m 1/2): 5153.675781 Right Ascen at Week(rad): -2.594294825 Argument of Perigee(rad): 1.416346258 Mean Anom(rad): 2.90823021 Af0(s): -0.0001823891846 Af1(s/s): 0 week: 363 ******** Week 363 almanac for PRN-6 ******** ID: 6 Health: 0 Eccentricity: 0.003830909729 Time of Applicability(s): 147456 Orbital Inclination(rad): 0.9868433967 Rate of Right Ascen(r/s): -7.920329913e-09 SQRT(A) (m 1/2): 5153.603027 Right Ascen at Week(rad): 2.712654026 Argument of Perigee(rad): -0.5507283146 Mean Anom(rad): 0.575257776 Af0(s): -0.0004838589111 Af1(s/s): 0 week: 363 ******** Week 363 almanac for PRN-7 ******** ID: 7 Health: 0 Eccentricity: 0.02062129974 Time of Applicability(s): 147456 Orbital Inclination(rad): 0.9511483828 Rate of Right Ascen(r/s): -7.931758961e-09 SQRT(A) (m 1/2): 5153.554688 Right Ascen at Week(rad): -0.4553117884 Argument of Perigee(rad): -1.985109333 Mean Anom(rad): -0.275718441 Af0(s): -0.0001296319824 Af1(s/s): -3.637979e-12 week: 363 ******** Week 363 almanac for PRN-8 ******** ID: 8 Health: 0 Eccentricity: 0.01158571243 Time of Applicability(s): 147456 Orbital Inclination(rad): 0.9429931177 Rate of Right Ascen(r/s): -8.148910863e-09 SQRT(A) (m 1/2): 5153.644531 Right Ascen at Week(rad): 1.591257144 Argument of Perigee(rad): 0.5319535283 Mean Anom(rad): 2.541770214 Af0(s): 0.0003745761353 Af1(s/s): -7.275958e-12 week: 363 ******** Week 363 almanac for PRN-9 ******** ID: 9 Health: 0 Eccentricity: 0.003343582153 Time of Applicability(s): 147456 Orbital Inclination(rad): 0.9647025412 Rate of Right Ascen(r/s): -7.794610391e-09 SQRT(A) (m 1/2): 5153.713379 Right Ascen at Week(rad): -1.528482276 Argument of Perigee(rad): 2.057821371 Mean Anom(rad): 3.140703575 Af0(s): 0.0006044468018 Af1(s/s): -3.637979e-12 week: 363 ******** Week 363 almanac for PRN-10 ******** ID: 10 Health: 0 Eccentricity: 0.0109295845 Time of Applicability(s): 147456 Orbital Inclination(rad): 0.9932669412 Rate of Right Ascen(r/s): -7.497455156e-09 SQRT(A) (m 1/2): 5153.612793 Right Ascen at Week(rad): -2.536805749 Argument of Perigee(rad): -2.255363342 Mean Anom(rad): -1.720666176 Af0(s): -0.0004665244019 Af1(s/s): 0 week: 363 ******** Week 363 almanac for PRN-11 ******** ID: 11 Health: 0 Eccentricity: 0.002216339111 Time of Applicability(s): 147456 Orbital Inclination(rad): 0.9637138426 Rate of Right Ascen(r/s): -8.148910863e-09 SQRT(A) (m 1/2): 5153.534668 Right Ascen at Week(rad): 2.730981276 Argument of Perigee(rad): -2.310729338 Mean Anom(rad): 1.693750355 Af0(s): -0.0003142821899 Af1(s/s): 1.455192e-11 week: 363 ******** Week 363 almanac for PRN-12 ******** ID: 12 Health: 0 Eccentricity: 0.008976459503 Time of Applicability(s): 147456 Orbital Inclination(rad): 0.9592976557 Rate of Right Ascen(r/s): -7.703178011e-09 SQRT(A) (m 1/2): 5153.713867 Right Ascen at Week(rad): 0.6622287942 Argument of Perigee(rad): 1.567309667 Mean Anom(rad): -0.9571733025 Af0(s): -0.0004800905395 Af1(s/s): 0 week: 363 ******** Week 363 almanac for PRN-13 ******** ID: 13 Health: 0 Eccentricity: 0.01006031036 Time of Applicability(s): 147456 Orbital Inclination(rad): 0.9761055312 Rate of Right Ascen(r/s): -7.703178011e-09 SQRT(A) (m 1/2): 5153.619141 Right Ascen at Week(rad): -1.353042212 Argument of Perigee(rad): 0.9941716008 Mean Anom(rad): 2.306340865 Af0(s): 0.0005396308105 Af1(s/s): 0 week: 363 ******** Week 363 almanac for PRN-14 ******** ID: 14 Health: 0 Eccentricity: 0.006838321686 Time of Applicability(s): 147456 Orbital Inclination(rad): 0.9426695437 Rate of Right Ascen(r/s): -7.851755628e-09 SQRT(A) (m 1/2): 5153.603027 Right Ascen at Week(rad): 0.6072710113 Argument of Perigee(rad): -2.741140529 Mean Anom(rad): -1.099697944 Af0(s): 0.0005848512695 Af1(s/s): 0 week: 363 ******** Week 363 almanac for PRN-15 ******** ID: 15 Health: 0 Eccentricity: 0.01663589478 Time of Applicability(s): 147456 Orbital Inclination(rad): 0.9426515673 Rate of Right Ascen(r/s): -8.000333246e-09 SQRT(A) (m 1/2): 5153.648926 Right Ascen at Week(rad): -1.673085807 Argument of Perigee(rad): 1.50482242 Mean Anom(rad): 1.548190334 Af0(s): 0.0003135285156 Af1(s/s): 3.637979e-12 week: 363 ******** Week 363 almanac for PRN-16 ******** ID: 16 Health: 0 Eccentricity: 0.01502609253 Time of Applicability(s): 147456 Orbital Inclination(rad): 0.9584108231 Rate of Right Ascen(r/s): -7.703178011e-09 SQRT(A) (m 1/2): 5153.609863 Right Ascen at Week(rad): 0.679166249 Argument of Perigee(rad): 0.9318476392 Mean Anom(rad): -2.704296902 Af0(s): 0.0001831428589 Af1(s/s): 7.275958e-12 week: 363 ******** Week 363 almanac for PRN-17 ******** ID: 17 Health: 0 Eccentricity: 0.01261663437 Time of Applicability(s): 147456 Orbital Inclination(rad): 0.9586505076 Rate of Right Ascen(r/s): -8.023191341e-09 SQRT(A) (m 1/2): 5153.555664 Right Ascen at Week(rad): 1.696331458 Argument of Perigee(rad): -1.118468237 Mean Anom(rad): 2.489216392 Af0(s): -7.536743164e-05 Af1(s/s): -1.091394e-11 week: 363 ******** Week 363 almanac for PRN-18 ******** ID: 18 Health: 0 Eccentricity: 0.005795955658 Time of Applicability(s): 147456 Orbital Inclination(rad): 0.9717972023 Rate of Right Ascen(r/s): -8.068907531e-09 SQRT(A) (m 1/2): 5153.586914 Right Ascen at Week(rad): 2.707323667 Argument of Perigee(rad): -2.866772282 Mean Anom(rad): 0.5024914349 Af0(s): -0.000312021167 Af1(s/s): 1.091394e-11 week: 363 ******** Week 363 almanac for PRN-19 ******** ID: 19 Health: 0 Eccentricity: 0.01122999191 Time of Applicability(s): 147456 Orbital Inclination(rad): 0.957817604 Rate of Right Ascen(r/s): -8.057478483e-09 SQRT(A) (m 1/2): 5153.675781 Right Ascen at Week(rad): 1.740227427 Argument of Perigee(rad): 2.939800403 Mean Anom(rad): -2.001929193 Af0(s): 0.0005486749023 Af1(s/s): 0 week: 363 ******** Week 363 almanac for PRN-20 ******** ID: 20 Health: 0 Eccentricity: 0.002238273621 Time of Applicability(s): 147456 Orbital Inclination(rad): 0.9601005988 Rate of Right Ascen(r/s): -7.851755628e-09 SQRT(A) (m 1/2): 5153.703613 Right Ascen at Week(rad): -1.522971031 Argument of Perigee(rad): -1.966716919 Mean Anom(rad): -1.000250599 Af0(s): 5.426455078e-05 Af1(s/s): 2.182787e-11 week: 363 ******** Week 363 almanac for PRN-21 ******** ID: 21 Health: 0 Eccentricity: 0.0007972717285 Time of Applicability(s): 147456 Orbital Inclination(rad): 0.9631326077 Rate of Right Ascen(r/s): -7.828897533e-09 SQRT(A) (m 1/2): 5153.731445 Right Ascen at Week(rad): -2.528681193 Argument of Perigee(rad): -0.2672017766 Mean Anom(rad): -1.303655221 Af0(s): 0.0003248336304 Af1(s/s): 3.637979e-12 week: 363 ******** Week 363 almanac for PRN-22 ******** ID: 22 Health: 0 Eccentricity: 0.01204395294 Time of Applicability(s): 147456 Orbital Inclination(rad): 0.9578595487 Rate of Right Ascen(r/s): -7.703178011e-09 SQRT(A) (m 1/2): 5153.575684 Right Ascen at Week(rad): 0.682522581 Argument of Perigee(rad): -0.9933997418 Mean Anom(rad): 3.136052198 Af0(s): -2.336390381e-05 Af1(s/s): 7.275958e-12 week: 363 ******** Week 363 almanac for PRN-23 ******** ID: 23 Health: 0 Eccentricity: 0.006060123444 Time of Applicability(s): 147456 Orbital Inclination(rad): 0.9882515431 Rate of Right Ascen(r/s): -7.577458489e-09 SQRT(A) (m 1/2): 5153.668457 Right Ascen at Week(rad): -2.568981895 Argument of Perigee(rad): -2.738426851 Mean Anom(rad): -0.6448456759 Af0(s): 0.0004959177002 Af1(s/s): 3.637979e-12 week: 363 ******** Week 363 almanac for PRN-24 ******** ID: 24 Health: 0 Eccentricity: 0.01794099808 Time of Applicability(s): 147456 Orbital Inclination(rad): 0.9351015056 Rate of Right Ascen(r/s): -8.160339911e-09 SQRT(A) (m 1/2): 5153.580566 Right Ascen at Week(rad): -0.5641704954 Argument of Perigee(rad): 1.137806281 Mean Anom(rad): 0.7070202093 Af0(s): -5.426455078e-05 Af1(s/s): 1.818989e-11 week: 363 ******** Week 363 almanac for PRN-25 ******** ID: 25 Health: 0 Eccentricity: 0.01291322708 Time of Applicability(s): 147456 Orbital Inclination(rad): 0.9477089102 Rate of Right Ascen(r/s): -7.840326581e-09 SQRT(A) (m 1/2): 5153.664551 Right Ascen at Week(rad): 0.5681904538 Argument of Perigee(rad): 1.159510462 Mean Anom(rad): -1.07955396 Af0(s): 0.0003436754883 Af1(s/s): -3.637979e-12 week: 363 ******** Week 363 almanac for PRN-26 ******** ID: 26 Health: 0 Eccentricity: 0.01101207733 Time of Applicability(s): 147456 Orbital Inclination(rad): 0.9285161741 Rate of Right Ascen(r/s): -8.011762293e-09 SQRT(A) (m 1/2): 5153.671875 Right Ascen at Week(rad): 0.4932882991 Argument of Perigee(rad): 0.7117217705 Mean Anom(rad): -1.900204471 Af0(s): -0.0002720764282 Af1(s/s): -3.637979e-12 week: 363 ******** Week 363 almanac for PRN-27 ******** ID: 27 Health: 0 Eccentricity: 0.01437664032 Time of Applicability(s): 147456 Orbital Inclination(rad): 0.9520831523 Rate of Right Ascen(r/s): -8.080336578e-09 SQRT(A) (m 1/2): 5153.618652 Right Ascen at Week(rad): 1.623483474 Argument of Perigee(rad): 0.8885359013 Mean Anom(rad): 2.646577129 Af0(s): -6.180129394e-05 Af1(s/s): -1.455192e-11 week: 363 ******** Week 363 almanac for PRN-28 ******** ID: 28 Health: 0 Eccentricity: 0.0004448890686 Time of Applicability(s): 147456 Orbital Inclination(rad): 0.9620660117 Rate of Right Ascen(r/s): -7.851755628e-09 SQRT(A) (m 1/2): 5153.74707 Right Ascen at Week(rad): -0.4808164661 Argument of Perigee(rad): -0.1377230872 Mean Anom(rad): 0.1737753808 Af0(s): -0.0004522045898 Af1(s/s): 7.275958e-12 week: 363 ******** Week 363 almanac for PRN-29 ******** ID: 29 Health: 0 Eccentricity: 0.003442287445 Time of Applicability(s): 147456 Orbital Inclination(rad): 0.9612990213 Rate of Right Ascen(r/s): -8.011762293e-09 SQRT(A) (m 1/2): 5153.700684 Right Ascen at Week(rad): 1.713122481 Argument of Perigee(rad): 2.744914436 Mean Anom(rad): 2.501405097 Af0(s): -0.0002796131714 Af1(s/s): 7.275958e-12 week: 363 ******** Week 363 almanac for PRN-30 ******** ID: 30 Health: 0 Eccentricity: 0.00813961029 Time of Applicability(s): 147456 Orbital Inclination(rad): 0.9364197704 Rate of Right Ascen(r/s): -8.126052768e-09 SQRT(A) (m 1/2): 5153.682617 Right Ascen at Week(rad): -0.4646096744 Argument of Perigee(rad): -2.30397061 Mean Anom(rad): -0.4716170754 Af0(s): 0.0001281246338 Af1(s/s): 1.455192e-11 week: 363 ******** Week 363 almanac for PRN-31 ******** ID: 31 Health: 0 Eccentricity: 0.0108332634 Time of Applicability(s): 147456 Orbital Inclination(rad): 0.9549294058 Rate of Right Ascen(r/s): -7.920329913e-09 SQRT(A) (m 1/2): 5153.51709 Right Ascen at Week(rad): -0.4310036607 Argument of Perigee(rad): 0.9388115974 Mean Anom(rad): -1.362999605 Af0(s): -0.0001266172852 Af1(s/s): 3.637979e-12 week: 363 ******** Week 363 almanac for PRN-32 ******** ID: 32 Health: 0 Eccentricity: 0.009366989136 Time of Applicability(s): 147456 Orbital Inclination(rad): 0.9677345501 Rate of Right Ascen(r/s): -7.783181343e-09 SQRT(A) (m 1/2): 5153.687988 Right Ascen at Week(rad): -1.511402134 Argument of Perigee(rad): -1.988964883 Mean Anom(rad): -3.07314026 Af0(s): -2.713227539e-05 Af1(s/s): 1.818989e-11 week: 363